User: anonymous   Login
Location: Unspecified
(0.0000°N, 0.0000°E)
Time: 05:50:35
(UTC+00:00)
Language:

STARLINK-35262 - Orbit

View from above orbital plane
View from above orbital plane
View from above satellite
View from above satellite

Ground track
Ground track

The orbit is defined by the following mean orbital elements,

1 65847U          26145.54365198 +.00000000 +00000-0 +61074-3 0 00003
2 65847  53.1576  91.8193 0001101  96.6912 263.4214 15.30219530    07
Epoch (UTC): 25 May 2026 13:02:51
Eccentricity: 0.0001101
inclination: 53.1576°
perigee height: 474 km
apogee height: 476 km
right ascension of ascending node: 91.8193°
argument of perigee: 96.6912°
revolutions per day: 15.30219530
mean anomaly at epoch: 263.4214°

The dashed part of the orbit path shows where the satellite is in the earth's shadow,  

DLR